Tracking 35280 objects as of 7-Sep-2026
HD Live streaming from Space Station
objects crossing your sky now

STARLINK-35625

Track STARLINK-35625 now!
10-day predictions
STARLINK-35625 is classified as:


NORAD ID: 66140
Int'l Code: 2025-237AC
Launch date: October 22, 2025
Source: United States (US)
Launch site: AIR FORCE WESTERN TEST RANGE (AFWTR)
Your satellite tracking list
Your tracking list is empty




NASA's NSSDC Master Catalog

Two Line Element Set (TLE):
1 66140U 25237AC  26249.50290405  .00007538  00000-0  23406-3 0  9995
2 66140  53.1590 276.9406 0001039  91.7089 268.4033 15.34393869 50331
Source of the keplerian elements: AFSPC